Location: Buckland
(65.9785°N, 161.1281°W)
Time: 21:43:13
(UTC+00:00)

SPROUT - Pass Details

Date: 20 January 2021
Orbit: 597 x 610 km, 97.9° (Epoch: 07 March)

Event Time Altitude Azimuth Distance (km) Brightness Sun altitude
Exits shadow 04:15:18 - 17° (NNE) 2,213 ? -14.3°
Reaches altitude 10° 04:16:28 10° 4° (N) 1,978 ? -14.4°
Maximum altitude 04:18:06 12° 341° (NNW) 1,846 ? -14.6°
Drops below altitude 10° 04:19:44 10° 319° (NW) 1,979 ? -14.7°
Sets 04:23:12 0° 289° (WNW) 2,884 ? -15.1°
